CW4674 Karlstad SE current weather conditions

sailwx.info

Air temperature 8.3° C
Dewpoint 5.6° C

Last reported at 2019-Sep-22 00:00 UTC.
Time now 2019-Sep-22 01:31 UTC

Location: N 59°24' E 013°35'.
View on Google Maps.

See reports from other nearby stations

  
Tides and Currents Weather Stations Pressure Air Temp Water Temp Dewpoint Dewpoint Depression Visibility Wind Speed Wind Dir Waves Ship Positions
date/time (UTC)wind fromknots sea level pressurealtimeterstation pressurevisibilityair tempwater tempwave heightnotes
2019-Sep-22 00:00 8.3
2019-Sep-21 23:42 8.3
2019-Sep-21 23:33 8.3
2019-Sep-21 23:09 8.9
2019-Sep-21 23:00 337 8.9
2019-Sep-21 22:33 8.9
2019-Sep-21 22:00 9.4
2019-Sep-21 21:42 337 9.4
2019-Sep-21 21:33 10.0
2019-Sep-21 21:24 10.0
2019-Sep-21 20:51 10.6
2019-Sep-21 20:42 10.6
2019-Sep-21 19:51 11.1
2019-Sep-21 19:33 11.7
2019-Sep-21 19:24 11.7
2019-Sep-21 19:09 12.2
2019-Sep-21 19:00 12.2
2019-Sep-21 18:24 337 12.8
2019-Sep-21 18:09 337 13.3
2019-Sep-21 17:51 13.9
2019-Sep-21 17:42 13.9
2019-Sep-21 17:33 14.4
2019-Sep-21 17:24 203 15.0
2019-Sep-21 16:42 17.2
2019-Sep-21 16:33 18.3
2019-Sep-21 16:24 18.9
2019-Sep-21 16:09 225 18.9
2019-Sep-21 15:51 232 18.9
2019-Sep-21 15:33 217 18.9
2019-Sep-21 15:24 218 18.9
2019-Sep-21 15:09 225 1 gusting 3 19.4
2019-Sep-21 15:00 219 0 gusting 5 19.4
2019-Sep-21 14:42 224 4 gusting 6 19.4
2019-Sep-21 14:24 222 2 gusting 3 20.0
2019-Sep-21 13:51 225 20.0
2019-Sep-21 13:42 238 20.0
2019-Sep-21 13:24 087 1 gusting 1 19.4
2019-Sep-21 13:00 227 19.4
2019-Sep-21 12:33 226 0 gusting 2 18.9
2019-Sep-21 11:59 006 17.8
2019-Sep-21 11:41 222 3 gusting 5 17.8
2019-Sep-21 11:32 223 17.2
2019-Sep-21 11:23 218 17.2
2019-Sep-21 11:08 235 16.7
2019-Sep-21 10:59 221 16.7
2019-Sep-21 10:41 230 1 gusting 4 16.1
2019-Sep-21 10:32 226 2 gusting 6 16.1
2019-Sep-21 10:23 230 3 gusting 5 16.1
2019-Sep-21 10:08 029 0 gusting 6 15.6
2019-Sep-21 09:41 022 15.0
2019-Sep-21 09:23 037 3 gusting 6 15.0
2019-Sep-21 09:08 223 14.4
2019-Sep-21 08:50 315 13.9
2019-Sep-21 08:32 010 12.8
2019-Sep-21 08:23 062 12.8
2019-Sep-21 08:08 230 12.2
2019-Sep-21 07:50 348 11.7
2019-Sep-21 07:41 043 11.1
2019-Sep-21 07:32 037 1 gusting 6 10.6
2019-Sep-21 07:23 041 10.6
2019-Sep-21 07:08 033 10.0
2019-Sep-21 06:41 027 8.9
2019-Sep-21 06:32 017 8.9
2019-Sep-21 06:23 051 8.3
2019-Sep-21 05:59 200 7.8
2019-Sep-21 05:41 337 6.7
2019-Sep-21 05:32 337 6.7
2019-Sep-21 04:50 337 7.2
2019-Sep-21 04:41 337 6 gusting 6 7.2
2019-Sep-21 04:32 337 7.2
2019-Sep-21 04:23 337 7.8
2019-Sep-21 04:08 7.8
2019-Sep-21 03:59 225 7.8
2019-Sep-21 03:50 7.8
2019-Sep-21 03:41 333 7.8
2019-Sep-21 03:32 337 7.8
2019-Sep-21 03:23 8.3
2019-Sep-21 02:32 235 0 gusting 6 8.3
2019-Sep-21 01:41 337 8.3
2019-Sep-21 01:32 8.9
2019-Sep-21 01:23 337 8.9
2019-Sep-21 00:32 8.3
2019-Sep-21 00:23 8.9
2019-Sep-20 23:40 225 9.4
2019-Sep-20 23:22 9.4
2019-Sep-20 23:07 9.4
2019-Sep-20 22:58 9.4
2019-Sep-20 22:40 10.0
2019-Sep-20 22:31 10.0
2019-Sep-20 21:58 10.0
2019-Sep-20 21:31 10.6
2019-Sep-20 21:07 337 11.1
2019-Sep-20 20:49 203 11.1
2019-Sep-20 20:31 209 11.7
2019-Sep-20 20:22 203 11.1
2019-Sep-20 20:07 11.1
2019-Sep-20 19:58 203 11.7
2019-Sep-20 19:40 203 11.7
2019-Sep-20 19:31 201 11.7
2019-Sep-20 18:58 337 11.7
2019-Sep-20 18:40 12.2
2019-Sep-20 18:07 12.8
2019-Sep-20 17:58 12.8
2019-Sep-20 17:49 13.3
2019-Sep-20 17:40 13.3
2019-Sep-20 17:31 13.9
2019-Sep-20 16:49 112 16.1
2019-Sep-20 16:40 220 16.7
2019-Sep-20 16:31 220 17.2
2019-Sep-20 16:22 217 17.8
2019-Sep-20 16:07 219 0 gusting 4 17.8
2019-Sep-20 15:58 216 17.8
2019-Sep-20 15:49 217 17.8
2019-Sep-20 14:40 219 17.2
2019-Sep-20 14:31 219 3 gusting 6 17.2
2019-Sep-20 14:22 217 3 gusting 5 17.2
2019-Sep-20 14:07 218 4 gusting 6 16.7
2019-Sep-20 13:49 219 1 gusting 4 16.7
2019-Sep-20 13:40 216 16.1
2019-Sep-20 13:31 215 16.1
2019-Sep-20 13:22 220 0 gusting 6 16.1
2019-Sep-20 13:06 221 1 gusting 6 15.6
2019-Sep-20 12:57 219 15.6
2019-Sep-20 12:39 220 2 gusting 6 15.0
2019-Sep-20 11:57 216 5 gusting 6 14.4
2019-Sep-20 11:48 221 13.9
2019-Sep-20 11:30 219 3 gusting 7 13.3
2019-Sep-20 11:21 228 3 gusting 5 13.3
2019-Sep-20 10:57 220 2 gusting 4 12.8
2019-Sep-20 10:48 220 1 gusting 4 12.2
2019-Sep-20 10:39 223 12.2
2019-Sep-20 10:21 215 11.7
2019-Sep-20 09:57 214 11.7
2019-Sep-20 09:39 210 11.1
2019-Sep-20 08:48 232 10.6
2019-Sep-20 08:30 225 1 gusting 3 10.6
2019-Sep-20 08:06 221 10.0
2019-Sep-20 07:39 208 8.3
2019-Sep-20 07:21 7.2
2019-Sep-20 06:57 337 7.2
2019-Sep-20 06:48 7.2
2019-Sep-20 06:30 6.7
2019-Sep-20 05:21 337 5.6
2019-Sep-20 05:06 337 5.6
2019-Sep-20 04:57 5.0
2019-Sep-20 04:48 5.0
2019-Sep-20 04:30 5.0
2019-Sep-20 04:06 4.4
2019-Sep-20 03:57 337 4.4
2019-Sep-20 03:48 4.4
2019-Sep-20 03:39 4.4
2019-Sep-20 03:30 4.4
2019-Sep-20 03:06 337 4.4
2019-Sep-20 02:57 4.4
2019-Sep-20 02:39 4.4
2019-Sep-20 02:30 5.0
2019-Sep-20 02:21 337 5.0
2019-Sep-20 01:57 5.0
2019-Sep-20 01:39 5.0
2019-Sep-20 01:21 5.0